QPF
0.00 0.01 0.00 0.00 0.00 0.00 0.00 0.00 0.00 0.00 0.00 0.00 0.00 0.00 0.00 0.00 0.01 0.01 0.01 0.01 0.01 0.01 0.01 0.01 0.00 0.01 0.01 0.01 0.01 0.02 0.04 0.06 0.07 0.08 0.10 0.12 0.14 0.13 0.08 0.05 0.04 0.03 0.05 0.07
0.01 0.00 0.00 0.00 0.00 0.00 0.00 0.00 0.00 0.00 0.00 0.00 0.00 0.00 0.00 0.00 0.00 0.01 0.02 0.02 0.02 0.01 0.01 0.01 0.00 0.00 0.01 0.01 0.01 0.01 0.03 0.06 0.07 0.09 0.09 0.11 0.14 0.18 0.16 0.11 0.07 0.05 0.04 0.05
0.00 0.00 0.00 0.00 0.00 0.00 0.00 0.00 0.00 0.00 0.00 0.00 0.00 0.00 0.00 0.00 0.01 0.02 0.03 0.02 0.03 0.02 0.02 0.02 0.01 0.01 0.01 0.01 0.01 0.01 0.03 0.05 0.07 0.09 0.09 0.08 0.10 0.15 0.19 0.16 0.12 0.09 0.06 0.05
0.00 0.00 0.00 0.00 0.00 0.00 0.01 0.00 0.00 0.01 0.01 0.01 0.01 0.01 0.00 0.00 0.00 0.01 0.02 0.02 0.03 0.03 0.03 0.03 0.02 0.02 0.02 0.02 0.02 0.02 0.04 0.05 0.08 0.09 0.09 0.07 0.06 0.08 0.12 0.13 0.10 0.08 0.08 0.08
0.00 0.00 0.00 0.00 0.00 0.00 0.00 0.00 0.01 0.01 0.01 0.01 0.01 0.01 0.01 0.01 0.01 0.01 0.01 0.01 0.02 0.04 0.05 0.05 0.05 0.04 0.03 0.04 0.04 0.04 0.06 0.07 0.07 0.09 0.09 0.09 0.06 0.06 0.08 0.09 0.09 0.07 0.06 0.07
0.00 0.00 0.00 0.00 0.00 0.00 0.00 0.00 0.01 0.01 0.01 0.01 0.00 0.01 0.01 0.04 0.03 0.01 0.01 0.01 0.02 0.03 0.05 0.07 0.07 0.08 0.08 0.06 0.06 0.07 0.08 0.08 0.07 0.07 0.07 0.08 0.05 0.04 0.05 0.08 0.08 0.08 0.08 0.06
0.01 0.00 0.00 0.00 0.01 0.00 0.01 0.01 0.02 0.02 0.02 0.01 0.00 0.01 0.02 0.04 0.03 0.02 0.01 0.01 0.01 0.03 0.05 0.05 0.07 0.11 0.12 0.11 0.10 0.09 0.09 0.10 0.08 0.07 0.06 0.06 0.05 0.04 0.06 0.08 0.10 0.10 0.10 0.08
0.01 0.01 0.00 0.00 0.01 0.01 0.01 0.01 0.02 0.01 0.01 0.01 0.01 0.01 0.01 0.03 0.03 0.03 0.02 0.01 0.01 0.02 0.03 0.05 0.06 0.07 0.11 0.14 0.15 0.13 0.11 0.10 0.08 0.07 0.05 0.04 0.04 0.03 0.04 0.07 0.09 0.11 0.11 0.11
0.02 0.01 0.01 0.01 0.00 0.00 0.01 0.01 0.01 0.02 0.01 0.01 0.01 0.01 0.01 0.01 0.02 0.05 0.05 0.02 0.01 0.02 0.03 0.05 0.06 0.07 0.08 0.09 0.10 0.11 0.11 0.09 0.07 0.06 0.05 0.05 0.04 0.03 0.03 0.04 0.07 0.08 0.09 0.09
0.02 0.02 0.01 0.01 0.01 0.01 0.01 0.01 0.02 0.02 0.02 0.01 0.01 0.01 0.01 0.01 0.02 0.03 0.06 0.04 0.02 0.02 0.04 0.04 0.04 0.07 0.06 0.05 0.04 0.05 0.07 0.07 0.06 0.05 0.05 0.05 0.05 0.04 0.03 0.03 0.04 0.06 0.07 0.07
0.03 0.04 0.02 0.01 0.01 0.01 0.01 0.01 0.02 0.02 0.01 0.01 0.01 0.01 0.01 0.01 0.01 0.02 0.04 0.04 0.03 0.03 0.03 0.04 0.04 0.06 0.05 0.04 0.03 0.04 0.04 0.05 0.05 0.05 0.05 0.05 0.05 0.05 0.05 0.05 0.05 0.06 0.08 0.09
0.03 0.04 0.03 0.01 0.01 0.01 0.01 0.01 0.01 0.02 0.01 0.01 0.00 0.00 0.00 0.00 0.02 0.03 0.03 0.03 0.02 0.02 0.02 0.02 0.03 0.04 0.03 0.03 0.03 0.03 0.03 0.03 0.03 0.04 0.04 0.04 0.04 0.04 0.04 0.04 0.04 0.05 0.07 0.09
0.04 0.05 0.04 0.02 0.02 0.01 0.01 0.01 0.02 0.03 0.02 0.01 0.01 0.00 0.00 0.00 0.01 0.03 0.03 0.02 0.01 0.01 0.00 0.01 0.02 0.02 0.03 0.03 0.03 0.03 0.02 0.01 0.01 0.01 0.01 0.02 0.02 0.02 0.02 0.02 0.02 0.02 0.03 0.04
0.05 0.05 0.04 0.04 0.02 0.01 0.01 0.01 0.01 0.02 0.03 0.02 0.01 0.00 0.00 0.00 0.00 0.02 0.02 0.01 0.00 0.00 0.00 0.01 0.02 0.02 0.02 0.03 0.04 0.04 0.03 0.02 0.01 0.01 0.01 0.01 0.01 0.01 0.01 0.01 0.01 0.02 0.03 0.03
0.05 0.05 0.02 0.01 0.01 0.01 0.01 0.00 0.00 0.01 0.01 0.01 0.01 0.00 0.00 0.00 0.00 0.00 0.01 0.01 0.00 0.00 0.00 0.01 0.01 0.02 0.02 0.03 0.04 0.04 0.03 0.02 0.01 0.01 0.01 0.01 0.01 0.01 0.01 0.01 0.01 0.02 0.03 0.03
0.04 0.05 0.02 0.01 0.01 0.00 0.00 0.00 0.00 0.00 0.00 0.01 0.01 0.00 0.00 0.00 0.00 0.00 0.00 0.00 0.00 0.00 0.00 0.00 0.01 0.02 0.02 0.03 0.04 0.05 0.03 0.02 0.01 0.01 0.01 0.01 0.01 0.01 0.01 0.01 0.02 0.02 0.03 0.04
0.03 0.04 0.03 0.02 0.01 0.00 0.00 0.00 0.00 0.00 0.00 0.01 0.01 0.01 0.00 0.00 0.00 0.00 0.00 0.00 0.00 0.00 0.00 0.00 0.00 0.01 0.02 0.02 0.04 0.06 0.05 0.03 0.02 0.01 0.01 0.01 0.01 0.01 0.00 0.01 0.02 0.02 0.03 0.04
0.02 0.03 0.05 0.03 0.01 0.01 0.01 0.00 0.00 0.00 0.01 0.00 0.00 0.00 0.00 0.00 0.00 0.00 0.00 0.00 0.00 0.00 0.00 0.00 0.01 0.01 0.01 0.02 0.04 0.05 0.05 0.03 0.02 0.02 0.01 0.01 0.01 0.01 0.01 0.01 0.01 0.03 0.04 0.04
0.02 0.04 0.05 0.04 0.02 0.01 0.00 0.00 0.00 0.01 0.01 0.00 0.00 0.00 0.00 0.00 0.00 0.00 0.00 0.00 0.00 0.00 0.01 0.01 0.01 0.01 0.02 0.02 0.03 0.05 0.05 0.03 0.03 0.02 0.02 0.01 0.01 0.01 0.01 0.02 0.02 0.02 0.04 0.05
0.03 0.05 0.07 0.04 0.03 0.01 0.01 0.00 0.00 0.01 0.01 0.00 0.00 0.00 0.00 0.00 0.00 0.00 0.00 0.00 0.00 0.00 0.01 0.01 0.01 0.02 0.02 0.02 0.03 0.04 0.05 0.04 0.03 0.03 0.02 0.01 0.01 0.01 0.01 0.02 0.02 0.02 0.03 0.04
0.03 0.05 0.05 0.03 0.03 0.01 0.01 0.00 0.00 0.01 0.01 0.01 0.00 0.00 0.00 0.00 0.00 0.00 0.00 0.00 0.00 0.00 0.00 0.01 0.01 0.02 0.03 0.03 0.04 0.04 0.04 0.04 0.03 0.03 0.03 0.02 0.01 0.01 0.01 0.02 0.02 0.02 0.03 0.04
0.01 0.02 0.03 0.02 0.03 0.01 0.01 0.01 0.01 0.01 0.01 0.01 0.00 0.00 0.00 0.00 0.00 0.00 0.00 0.00 0.00 0.00 0.00 0.01 0.01 0.01 0.02 0.04 0.04 0.04 0.05 0.04 0.04 0.03 0.03 0.02 0.02 0.01 0.01 0.02 0.03 0.02 0.03 0.04
0.01 0.02 0.03 0.02 0.01 0.01 0.01 0.01 0.01 0.01 0.01 0.01 0.01 0.00 0.01 0.01 0.00 0.00 0.00 0.00 0.01 0.01 0.01 0.01 0.02 0.02 0.02 0.03 0.04 0.06 0.06 0.05 0.05 0.04 0.03 0.03 0.03 0.02 0.02 0.03 0.04 0.03 0.03 0.04
0.01 0.01 0.02 0.02 0.01 0.01 0.01 0.01 0.01 0.01 0.01 0.00 0.01 0.01 0.01 0.01 0.01 0.01 0.01 0.01 0.01 0.01 0.01 0.01 0.02 0.03 0.02 0.03 0.04 0.06 0.06 0.06 0.06 0.06 0.04 0.03 0.04 0.04 0.04 0.04 0.05 0.04 0.04 0.04
0.01 0.01 0.01 0.01 0.00 0.00 0.01 0.01 0.01 0.01 0.01 0.01 0.01 0.01 0.01 0.01 0.02 0.02 0.01 0.01 0.01 0.01 0.01 0.01 0.02 0.04 0.03 0.02 0.03 0.05 0.05 0.05 0.05 0.05 0.04 0.04 0.04 0.04 0.05 0.05 0.05 0.05 0.05 0.05
0.00 0.00 0.01 0.00 0.00 0.01 0.01 0.01 0.01 0.01 0.01 0.01 0.01 0.01 0.01 0.02 0.02 0.01 0.01 0.01 0.01 0.01 0.01 0.02 0.02 0.03 0.03 0.02 0.02 0.03 0.03 0.04 0.04 0.05 0.04 0.04 0.04 0.04 0.04 0.04 0.05 0.06 0.07 0.07
MSLP
1015.44 1015.59 1015.66 1015.69 1015.71 1015.73 1015.79 1015.90 1016.04 1016.20 1016.34 1016.44 1016.48 1016.45 1016.36 1016.25 1016.14 1016.08 1016.08 1016.17 1016.34 1016.57 1016.84 1017.12 1017.38 1017.62 1017.84 1018.06 1018.31 1018.61 1019.00 1019.46 1020.00 1020.57 1021.15 1021.68 1022.14 1022.49 1022.74 1022.89 1022.98 1023.03 1023.08 1023.14
1015.45 1015.53 1015.54 1015.53 1015.53 1015.59 1015.72 1015.91 1016.14 1016.38 1016.56 1016.65 1016.62 1016.48 1016.26 1015.99 1015.74 1015.55 1015.47 1015.51 1015.66 1015.91 1016.21 1016.52 1016.80 1017.04 1017.25 1017.45 1017.68 1017.98 1018.36 1018.85 1019.43 1020.07 1020.71 1021.32 1021.86 1022.28 1022.60 1022.81 1022.94 1023.03 1023.12 1023.21
1015.37 1015.38 1015.34 1015.31 1015.34 1015.46 1015.68 1015.99 1016.32 1016.63 1016.83 1016.88 1016.76 1016.47 1016.06 1015.59 1015.15 1014.80 1014.60 1014.58 1014.71 1014.97 1015.31 1015.67 1015.99 1016.27 1016.50 1016.72 1016.95 1017.24 1017.63 1018.14 1018.74 1019.42 1020.12 1020.80 1021.40 1021.90 1022.28 1022.56 1022.76 1022.92 1023.06 1023.21
1015.18 1015.15 1015.09 1015.07 1015.16 1015.38 1015.73 1016.17 1016.62 1016.99 1017.20 1017.19 1016.94 1016.47 1015.84 1015.13 1014.47 1013.94 1013.60 1013.49 1013.60 1013.87 1014.25 1014.67 1015.06 1015.39 1015.67 1015.91 1016.16 1016.46 1016.85 1017.36 1017.98 1018.68 1019.41 1020.13 1020.78 1021.34 1021.79 1022.14 1022.42 1022.66 1022.87 1023.09
1014.90 1014.84 1014.80 1014.84 1015.02 1015.37 1015.88 1016.46 1017.03 1017.46 1017.67 1017.59 1017.19 1016.52 1015.65 1014.70 1013.81 1013.08 1012.60 1012.40 1012.46 1012.74 1013.17 1013.64 1014.10 1014.50 1014.83 1015.11 1015.38 1015.68 1016.08 1016.58 1017.19 1017.88 1018.62 1019.35 1020.03 1020.63 1021.14 1021.56 1021.91 1022.23 1022.53 1022.84
1014.55 1014.49 1014.49 1014.61 1014.93 1015.44 1016.11 1016.84 1017.52 1018.01 1018.21 1018.04 1017.50 1016.63 1015.54 1014.36 1013.25 1012.34 1011.72 1011.43 1011.45 1011.74 1012.19 1012.71 1013.23 1013.68 1014.05 1014.36 1014.64 1014.95 1015.32 1015.80 1016.39 1017.05 1017.77 1018.49 1019.18 1019.80 1020.35 1020.82 1021.25 1021.65 1022.04 1022.44
1014.15 1014.11 1014.17 1014.41 1014.87 1015.54 1016.37 1017.25 1018.03 1018.57 1018.75 1018.50 1017.83 1016.79 1015.51 1014.14 1012.86 1011.80 1011.07 1010.70 1010.68 1010.95 1011.41 1011.96 1012.50 1012.98 1013.37 1013.68 1013.95 1014.24 1014.59 1015.03 1015.57 1016.20 1016.88 1017.58 1018.26 1018.89 1019.46 1019.99 1020.48 1020.96 1021.44 1021.93
1013.71 1013.72 1013.86 1014.22 1014.82 1015.65 1016.63 1017.62 1018.47 1019.04 1019.19 1018.87 1018.09 1016.93 1015.52 1014.02 1012.62 1011.47 1010.67 1010.24 1010.19 1010.43 1010.88 1011.41 1011.93 1012.39 1012.76 1013.04 1013.28 1013.53 1013.84 1014.23 1014.73 1015.32 1015.96 1016.64 1017.31 1017.95 1018.55 1019.12 1019.67 1020.22 1020.78 1021.36
1013.28 1013.35 1013.58 1014.05 1014.78 1015.73 1016.81 1017.87 1018.76 1019.32 1019.44 1019.06 1018.21 1016.98 1015.50 1013.95 1012.51 1011.33 1010.50 1010.05 1009.97 1010.17 1010.57 1011.04 1011.50 1011.89 1012.19 1012.41 1012.59 1012.78 1013.04 1013.39 1013.85 1014.41 1015.04 1015.70 1016.37 1017.03 1017.66 1018.27 1018.88 1019.49 1020.13 1020.79
1012.89 1013.02 1013.33 1013.90 1014.72 1015.75 1016.88 1017.96 1018.83 1019.35 1019.41 1018.99 1018.10 1016.85 1015.37 1013.85 1012.45 1011.31 1010.50 1010.06 1009.96 1010.11 1010.43 1010.80 1011.15 1011.43 1011.61 1011.74 1011.84 1011.97 1012.18 1012.50 1012.94 1013.50 1014.13 1014.81 1015.50 1016.19 1016.86 1017.52 1018.18 1018.85 1019.54 1020.26
1012.57 1012.77 1013.16 1013.80 1014.68 1015.72 1016.83 1017.86 1018.66 1019.09 1019.09 1018.61 1017.72 1016.50 1015.09 1013.67 1012.37 1011.32 1010.59 1010.18 1010.06 1010.15 1010.36 1010.61 1010.81 1010.94 1010.99 1011.00 1011.01 1011.08 1011.26 1011.57 1012.03 1012.60 1013.27 1014.00 1014.74 1015.48 1016.20 1016.91 1017.61 1018.33 1019.06 1019.82
1012.36 1012.62 1013.08 1013.76 1014.64 1015.65 1016.68 1017.59 1018.26 1018.57 1018.47 1017.96 1017.07 1015.92 1014.63 1013.35 1012.21 1011.31 1010.67 1010.32 1010.18 1010.21 1010.31 1010.40 1010.43 1010.40 1010.31 1010.20 1010.12 1010.15 1010.32 1010.65 1011.14 1011.77 1012.51 1013.30 1014.11 1014.91 1015.69 1016.44 1017.19 1017.94 1018.70 1019.46
1012.26 1012.59 1013.10 1013.79 1014.63 1015.54 1016.43 1017.18 1017.67 1017.84 1017.63 1017.07 1016.21 1015.15 1014.01 1012.92 1011.96 1011.22 1010.71 1010.41 1010.27 1010.23 1010.20 1010.14 1010.01 1009.81 1009.58 1009.37 1009.24 1009.24 1009.41 1009.79 1010.34 1011.04 1011.86 1012.72 1013.61 1014.48 1015.32 1016.12 1016.89 1017.66 1018.42 1019.18
1012.28 1012.67 1013.21 1013.87 1014.63 1015.41 1016.12 1016.66 1016.95 1016.95 1016.63 1016.03 1015.21 1014.26 1013.29 1012.39 1011.64 1011.07 1010.68 1010.44 1010.29 1010.18 1010.03 1009.82 1009.54 1009.20 1008.86 1008.56 1008.39 1008.39 1008.61 1009.04 1009.66 1010.44 1011.34 1012.28 1013.23 1014.16 1015.04 1015.87 1016.67 1017.43 1018.18 1018.92
1012.42 1012.85 1013.38 1013.99 1014.63 1015.24 1015.74 1016.06 1016.14 1015.96 1015.54 1014.91 1014.15 1013.32 1012.53 1011.83 1011.27 1010.87 1010.59 1010.40 1010.24 1010.06 1009.81 1009.47 1009.06 1008.61 1008.18 1007.84 1007.66 1007.68 1007.94 1008.43 1009.12 1009.98 1010.93 1011.93 1012.93 1013.90 1014.80 1015.65 1016.44 1017.20 1017.93 1018.64
1012.64 1013.08 1013.58 1014.10 1014.59 1015.01 1015.29 1015.39 1015.27 1014.95 1014.44 1013.81 1013.11 1012.42 1011.80 1011.30 1010.92 1010.66 1010.48 1010.33 1010.15 1009.91 1009.56 1009.12 1008.61 1008.08 1007.60 1007.25 1007.08 1007.13 1007.44 1007.98 1008.73 1009.63 1010.62 1011.65 1012.66 1013.64 1014.55 1015.39 1016.18 1016.92 1017.62 1018.29
1012.93 1013.34 1013.76 1014.15 1014.48 1014.69 1014.76 1014.65 1014.36 1013.92 1013.37 1012.76 1012.16 1011.61 1011.16 1010.84 1010.62 1010.48 1010.38 1010.25 1010.06 1009.75 1009.33 1008.80 1008.22 1007.65 1007.15 1006.80 1006.66 1006.75 1007.10 1007.68 1008.45 1009.36 1010.36 1011.38 1012.38 1013.33 1014.23 1015.05 1015.82 1016.54 1017.23 1017.88
1013.25 1013.58 1013.88 1014.12 1014.26 1014.27 1014.14 1013.85 1013.44 1012.93 1012.37 1011.83 1011.33 1010.94 1010.66 1010.50 1010.42 1010.38 1010.33 1010.21 1009.99 1009.63 1009.15 1008.56 1007.94 1007.35 1006.85 1006.52 1006.41 1006.53 1006.91 1007.50 1008.27 1009.16 1010.12 1011.10 1012.06 1012.97 1013.83 1014.63 1015.38 1016.08 1016.75 1017.39
1013.57 1013.77 1013.92 1013.97 1013.92 1013.74 1013.43 1013.02 1012.52 1011.99 1011.48 1011.02 1010.66 1010.42 1010.31 1010.29 1010.33 1010.36 1010.35 1010.23 1009.98 1009.57 1009.04 1008.43 1007.78 1007.19 1006.71 1006.40 1006.32 1006.46 1006.84 1007.43 1008.16 1009.00 1009.90 1010.81 1011.71 1012.56 1013.37 1014.14 1014.87 1015.57 1016.23 1016.86
1013.86 1013.90 1013.85 1013.72 1013.47 1013.12 1012.68 1012.17 1011.64 1011.14 1010.70 1010.36 1010.15 1010.07 1010.11 1010.22 1010.35 1010.45 1010.45 1010.33 1010.05 1009.61 1009.05 1008.41 1007.77 1007.18 1006.72 1006.44 1006.38 1006.53 1006.90 1007.44 1008.12 1008.89 1009.71 1010.54 1011.35 1012.14 1012.91 1013.64 1014.35 1015.04 1015.70 1016.33
1014.08 1013.93 1013.70 1013.37 1012.95 1012.46 1011.92 1011.37 1010.85 1010.41 1010.07 1009.87 1009.81 1009.89 1010.06 1010.28 1010.49 1010.63 1010.65 1010.51 1010.21 1009.76 1009.18 1008.54 1007.91 1007.34 1006.91 1006.65 1006.59 1006.73 1007.07 1007.56 1008.16 1008.85 1009.57 1010.31 1011.05 1011.77 1012.48 1013.18 1013.87 1014.55 1015.20 1015.83
1014.20 1013.86 1013.44 1012.94 1012.39 1011.79 1011.20 1010.65 1010.18 1009.83 1009.62 1009.56 1009.65 1009.85 1010.14 1010.45 1010.72 1010.89 1010.92 1010.79 1010.48 1010.02 1009.45 1008.83 1008.21 1007.67 1007.26 1007.01 1006.95 1007.07 1007.35 1007.78 1008.30 1008.89 1009.52 1010.17 1010.83 1011.48 1012.15 1012.81 1013.47 1014.12 1014.76 1015.37
1014.17 1013.67 1013.09 1012.46 1011.81 1011.17 1010.58 1010.07 1009.68 1009.44 1009.36 1009.43 1009.65 1009.97 1010.34 1010.72 1011.03 1011.23 1011.27 1011.14 1010.84 1010.40 1009.85 1009.26 1008.68 1008.17 1007.77 1007.53 1007.45 1007.53 1007.76 1008.11 1008.54 1009.04 1009.58 1010.14 1010.72 1011.31 1011.91 1012.53 1013.15 1013.77 1014.37 1014.94
1013.94 1013.31 1012.63 1011.94 1011.25 1010.62 1010.07 1009.64 1009.36 1009.24 1009.28 1009.48 1009.80 1010.21 1010.64 1011.06 1011.40 1011.61 1011.67 1011.56 1011.28 1010.87 1010.36 1009.81 1009.27 1008.80 1008.42 1008.17 1008.07 1008.10 1008.27 1008.53 1008.88 1009.28 1009.73 1010.21 1010.71 1011.23 1011.77 1012.33 1012.90 1013.46 1014.00 1014.51
1013.50 1012.79 1012.07 1011.36 1010.70 1010.14 1009.68 1009.37 1009.22 1009.23 1009.39 1009.68 1010.08 1010.54 1011.01 1011.44 1011.79 1012.01 1012.08 1012.00 1011.76 1011.40 1010.94 1010.45 1009.95 1009.51 1009.15 1008.89 1008.76 1008.74 1008.83 1009.01 1009.27 1009.59 1009.95 1010.35 1010.77 1011.23 1011.70 1012.19 1012.68 1013.16 1013.63 1014.06
1012.83 1012.10 1011.39 1010.73 1010.17 1009.72 1009.41 1009.24 1009.23 1009.36 1009.63 1010.00 1010.44 1010.93 1011.40 1011.83 1012.17 1012.40 1012.48 1012.42 1012.23 1011.92 1011.53 1011.09 1010.65 1010.24 1009.89 1009.62 1009.45 1009.37 1009.39 1009.49 1009.67 1009.90 1010.18 1010.51 1010.86 1011.24 1011.64 1012.05 1012.46 1012.86 1013.23 1013.57
Thickness
5555 5550 5547 5550 5551 5553 5550 5547 5548 5554 5558 5557 5558 5563 5573 5574 5571 5572 5573 5574 5576 5580 5583 5584 5586 5588 5590 5592 5594 5598 5600 5602 5604 5605 5606 5607 5608 5608 5608 5608 5609 5609 5609 5610
5542 5540 5546 5547 5546 5545 5543 5540 5540 5546 5550 5550 5550 5556 5566 5568 5567 5569 5570 5570 5571 5573 5574 5576 5577 5579 5580 5582 5585 5587 5590 5592 5594 5596 5597 5598 5599 5598 5599 5599 5599 5600 5600 5601
5535 5538 5542 5541 5538 5537 5537 5534 5536 5536 5538 5541 5542 5551 5561 5566 5564 5566 5565 5565 5566 5568 5567 5568 5569 5569 5570 5572 5575 5579 5580 5583 5585 5586 5587 5587 5589 5589 5589 5590 5590 5590 5591 5592
5525 5530 5533 5533 5531 5531 5531 5534 5532 5530 5525 5524 5531 5532 5554 5558 5558 5561 5558 5556 5558 5560 5559 5559 5560 5560 5561 5563 5566 5568 5571 5573 5575 5576 5577 5578 5579 5580 5580 5580 5580 5580 5581 5582
5519 5523 5524 5525 5527 5526 5525 5528 5524 5522 5518 5514 5517 5516 5542 5547 5551 5556 5554 5550 5550 5550 5550 5550 5550 5551 5553 5554 5556 5558 5561 5564 5565 5566 5568 5569 5570 5571 5571 5571 5571 5572 5572 5573
5513 5516 5518 5519 5522 5521 5518 5516 5513 5505 5503 5508 5513 5510 5530 5534 5544 5549 5548 5544 5542 5540 5540 5540 5540 5541 5542 5543 5545 5548 5552 5554 5556 5557 5558 5559 5561 5562 5562 5562 5562 5562 5563 5564
5504 5509 5510 5513 5512 5513 5510 5504 5495 5495 5488 5501 5507 5507 5524 5537 5537 5539 5538 5535 5532 5530 5529 5529 5529 5529 5530 5531 5533 5537 5541 5544 5546 5547 5548 5549 5552 5554 5555 5554 5554 5554 5554 5555
5491 5496 5502 5503 5506 5503 5502 5500 5493 5492 5487 5492 5496 5501 5523 5528 5527 5527 5528 5527 5523 5520 5519 5519 5519 5519 5520 5522 5523 5526 5529 5533 5535 5536 5537 5539 5542 5544 5545 5546 5546 5546 5546 5546
5481 5487 5494 5497 5499 5500 5495 5490 5492 5480 5474 5478 5490 5498 5514 5521 5522 5521 5519 5517 5514 5512 5511 5510 5510 5509 5510 5512 5514 5516 5518 5521 5524 5525 5527 5529 5532 5534 5535 5536 5536 5536 5536 5536
5473 5473 5480 5485 5491 5490 5490 5484 5477 5476 5476 5483 5490 5492 5508 5516 5515 5513 5511 5508 5506 5503 5501 5500 5500 5500 5501 5502 5504 5506 5509 5512 5514 5515 5517 5520 5521 5523 5524 5525 5526 5527 5527 5527
5464 5462 5467 5473 5477 5480 5478 5477 5473 5466 5465 5470 5479 5501 5508 5507 5506 5502 5501 5499 5497 5495 5492 5491 5491 5491 5492 5493 5495 5497 5499 5502 5503 5505 5506 5508 5509 5511 5513 5514 5515 5516 5517 5517
5454 5451 5453 5460 5467 5469 5473 5472 5466 5468 5464 5454 5458 5489 5503 5496 5494 5492 5492 5492 5489 5487 5485 5483 5483 5483 5484 5485 5486 5488 5490 5492 5493 5495 5496 5497 5499 5500 5501 5503 5504 5506 5507 5507
5447 5442 5447 5457 5459 5456 5458 5459 5457 5453 5450 5445 5457 5488 5495 5487 5486 5486 5484 5484 5482 5480 5479 5477 5476 5476 5477 5478 5479 5481 5482 5483 5485 5486 5487 5488 5489 5490 5491 5492 5493 5495 5496 5496
5444 5432 5437 5450 5454 5447 5446 5449 5447 5447 5444 5442 5454 5476 5485 5482 5479 5478 5476 5475 5473 5474 5473 5471 5470 5470 5470 5471 5473 5474 5475 5476 5478 5478 5479 5479 5480 5481 5482 5482 5483 5484 5485 5485
5431 5425 5425 5430 5436 5438 5441 5443 5441 5442 5446 5447 5460 5459 5475 5473 5468 5467 5466 5466 5466 5467 5466 5465 5464 5463 5463 5464 5465 5466 5467 5468 5469 5469 5469 5470 5471 5471 5472 5472 5473 5473 5473 5473
5418 5417 5418 5423 5431 5431 5437 5442 5438 5439 5441 5441 5447 5455 5465 5462 5458 5457 5457 5458 5459 5460 5460 5459 5458 5457 5457 5458 5458 5458 5459 5459 5459 5460 5460 5461 5462 5462 5462 5463 5463 5463 5463 5462
5408 5408 5411 5416 5418 5427 5435 5444 5439 5438 5436 5440 5447 5458 5456 5454 5455 5454 5453 5452 5452 5452 5452 5451 5450 5451 5452 5452 5452 5452 5452 5451 5451 5451 5452 5452 5453 5453 5453 5453 5453 5453 5452 5451
5404 5403 5401 5403 5410 5424 5450 5441 5439 5437 5438 5436 5442 5447 5448 5448 5447 5445 5444 5443 5444 5445 5445 5444 5443 5443 5443 5444 5444 5444 5444 5443 5443 5443 5443 5444 5444 5444 5444 5443 5442 5442 5441 5440
5402 5400 5394 5394 5400 5416 5436 5434 5428 5430 5438 5438 5434 5438 5438 5437 5436 5440 5441 5439 5438 5437 5436 5435 5435 5434 5435 5435 5436 5436 5435 5435 5436 5437 5437 5436 5436 5435 5434 5434 5433 5432 5430 5430
5392 5391 5390 5388 5399 5416 5435 5429 5425 5428 5431 5435 5429 5431 5430 5429 5430 5437 5437 5432 5429 5428 5427 5426 5426 5426 5426 5427 5427 5427 5428 5428 5429 5430 5431 5430 5428 5427 5427 5426 5424 5422 5420 5420
5385 5381 5381 5383 5388 5407 5421 5417 5419 5422 5429 5429 5423 5423 5421 5421 5425 5427 5424 5422 5421 5419 5419 5419 5418 5418 5419 5419 5418 5418 5419 5420 5422 5422 5422 5422 5421 5420 5419 5417 5415 5413 5411 5410
5382 5377 5374 5375 5383 5407 5414 5408 5412 5418 5419 5417 5416 5416 5415 5414 5416 5416 5415 5414 5412 5411 5411 5410 5409 5410 5410 5410 5410 5410 5411 5412 5412 5413 5413 5413 5412 5411 5411 5408 5406 5404 5402 5401
5378 5383 5383 5387 5404 5409 5403 5405 5408 5407 5408 5410 5409 5409 5408 5407 5407 5407 5407 5405 5404 5404 5403 5403 5401 5401 5401 5401 5401 5401 5402 5403 5403 5403 5404 5404 5404 5403 5402 5400 5398 5396 5394 5393
5375 5375 5376 5380 5394 5399 5399 5399 5400 5401 5402 5404 5403 5402 5400 5400 5400 5398 5398 5397 5396 5396 5395 5394 5393 5392 5392 5392 5392 5393 5394 5394 5394 5394 5394 5395 5394 5393 5392 5391 5390 5388 5387 5386
5379 5369 5370 5376 5388 5392 5399 5397 5397 5397 5396 5396 5396 5395 5395 5393 5392 5391 5390 5389 5389 5389 5387 5386 5385 5384 5384 5384 5385 5385 5386 5386 5385 5385 5386 5386 5386 5384 5383 5382 5381 5381 5381 5380
5375 5373 5374 5389 5393 5389 5396 5396 5393 5392 5392 5392 5390 5389 5388 5386 5385 5383 5382 5381 5380 5380 5379 5379 5378 5377 5377 5377 5377 5378 5378 5379 5378 5378 5378 5377 5377 5376 5375 5374 5373 5372 5372 5374